TRANSIT 10 DEB, 24705

Orbit data source: Space-Track

TRANSIT 10 DEB, 24705 is space debris in LEO originally from a launch on Wed, 22 Dec 1965 UTC launched from the Air Force Western Test Range (AFWTR). Debris objects in space refer to the collection of defunct objects orbiting the Earth. Examples of debris include non-operational satellites, rocket bodies, and fragments generated from explosions, collisions, or faulty payload assembly.

Loading next visibility...
Identifier
24705, 1965-109E
Orbit
LEO
Last TLE update
12 hours ago
Origin
Manufacturer
Unknown
Mission
Spacecraft
Bus & Motor
Unknown
Mass
Unknown
Launch date (UTC)
1965-12-22 (60 years ago)
Launch vehicle
Unknown
Launch site
Air Force Western Test Range (AFWTR)
Object type
Payload
Rocket body
Debris
Shape & HBR
Unknown
Radar Cross Section
Medium (>0.1 m² and <1 m²)

Expand to show TLE details & history

TLE from 12 hours ago
0 TRANSIT 10 DEB
1 24705U 65109E   25200.14303910  .00002020  00000-0  10875-2 0  9996
2 24705  89.0562 233.2262 0084049  58.2548   4.4608 14.10663635454119
Epoch: 2025-07-19T03:25Z
TLE epoch observation values (Epoch: 2025-07-19T03:25:58.578Z)
Latitude
62.86552°
Longitude
-113.61996°
Altitude
807.364 km
Speed
7.487 km/s
True Right ascension
15h 40m 14s
True Declination
62° 43' 36"
Sunlit
Object was in daylight at epoch
Visualization orbit readout
Latitude
26.98805°
Longitude
-115.02573°
Altitude
807.573 km
Speed
7.479 km/s
Apparent Right ascension
15h 46m 06s
Apparent Declination
-4° 11' 32"
Sunlit
Object is in daylight
Visualization observer readout
Local Sidereal Time
04:01:10
Azimuth
6.411° NNE
Elevation
-54.115°
Doppler factor
1
Orbital elements
Apogee altitude
914.852 km
Perigee altitude
793.28 km
Semi-major axis
7,232.203 km
Eccentricity
0.0084
Inclination
89.0562°
RAAN
233.2262°
Arg. of periapsis
58.2548°
True anomaly
4.5365°
Mean anomaly
4.4608°
Eccentric anomaly
4.49857°
Mean motion
3.52888 °/min
Orbital period
102.02 mins
BSTAR
0.0010875
Loading maneuver chart data...
Loading SW <> Apogee altitude chart data...
Loading historical data...
Loading historical data...
Loading historical data...
Loading historical data...
Loading historical data...
Loading historical data...
Loading historical data...
|